THORAD AGENA D DEB, 26821

Orbit data source: Space-Track

THORAD AGENA D DEB, 26821 is space debris in SSO originally from a launch on Wed, 08 Apr 1970 UTC launched from the Air Force Western Test Range (AFWTR). Debris objects in space refer to the collection of defunct objects orbiting the Earth. Examples of debris include non-operational satellites, rocket bodies, and fragments generated from explosions, collisions, or faulty payload assembly.

Loading next visibility...
Identifier
26821, 1970-025QQ
Orbit
SSO
Country
Flag of USUS
Related business
Manufacturer
Unknown
Mission
Spacecraft
Bus & Motor
Unknown
Mass
Unknown
Launch date (UTC)
1970-04-08 (56 years ago)
Launch vehicle
Unknown
Launch site
Air Force Western Test Range (AFWTR)
Object type
Payload
Rocket body
Debris
Shape & HBR
Unknown shape, 0.1 m
Radar Cross Section
Small (<0.1 m²)

Expand to show TLE details & history
Last TLE update: 23 hours ago

TLE from 23 hours ago
0 THORAD AGENA D DEB
1 26821U 70025QQ  25292.10451990  .00043909  00000-0  80170-2 0  9995
2 26821  99.9791 236.6809 0046826   4.9325 123.5040 14.65042470671639
Epoch: 2025-10-19T02:30Z
TLE epoch observation values (Epoch: 2025-10-19T02:30:30.519Z)
Latitude
50.1575°
Longitude
3.33442°
Altitude
703.226 km
Speed
7.499 km/s
True Right ascension
04h 35m 09s
True Declination
49° 59' 13"
Sunlit
Object was in full shadow at epoch
Visualization orbit readout
Latitude
Unknown
Longitude
Unknown
Altitude
Unknown
Speed
Unknown
Apparent Right ascension
Unknown
Apparent Declination
Unknown
Sunlit
N/A
Visualization observer readout
Local Sidereal Time
20:21:42
Azimuth
Unknown
Elevation
Unknown
Doppler factor
Unknown
Orbital elements
Apogee altitude
707.127 km
Perigee altitude
641.081 km
Semi-major axis
7,052.241 km
Eccentricity
0.00468
Inclination
99.9791°
RAAN
236.6809°
Arg. of periapsis
4.9325°
True anomaly
123.94999°
Mean anomaly
123.504°
Eccentric anomaly
123.72714°
Mean motion
3.66482 °/min
Orbital period
98.23 mins
BSTAR
0.008017

Documentation

Showing up to 5 results
|